Dewpoint
58 58 58 57 57 57 57 57 57 57 57 58 58 59 60 60 59 54 43 45 49 55 52 32 32 31 31 33 32 28 23 19 20 19 19 22 21 22 24 25 26 31 37 40 50
58 57 57 57 57 57 57 56 57 57 57 58 58 59 59 59 54 45 51 57 57 55 37 28 27 28 25 31 29 25 21 19 18 18 20 20 20 21 20 23 25 30 36 47 53
57 57 56 56 56 56 56 56 57 57 57 58 58 59 59 57 46 40 56 57 56 51 37 33 27 25 26 28 27 25 24 20 21 24 22 21 20 21 20 20 21 26 35 50 52
57 56 55 55 55 55 56 56 57 57 56 57 58 59 59 52 24 42 55 56 55 40 35 30 24 23 22 21 25 20 22 18 28 29 25 22 23 21 20 20 24 24 36 49 51
57 57 55 55 55 55 56 56 56 57 57 57 58 59 52 39 38 40 53 51 39 37 31 27 23 23 21 21 20 19 18 18 27 27 25 26 23 22 22 22 23 31 37 49 50
57 56 56 56 55 55 55 56 56 57 57 57 58 58 43 28 44 39 38 39 36 34 29 28 24 24 21 19 18 24 22 19 24 25 25 24 22 23 20 23 23 27 34 44 49
57 56 56 55 55 55 55 56 57 57 57 57 57 52 34 28 43 37 37 38 38 36 30 32 29 25 27 23 27 25 19 20 20 23 24 26 12 19 21 23 22 23 25 33 41
57 56 55 55 55 55 56 57 58 58 58 57 57 47 29 42 42 37 36 36 35 34 36 35 32 32 30 28 24 21 19 15 20 23 27 18 7 15 20 20 21 21 23 25 26
56 56 56 56 56 56 57 58 57 57 56 56 47 38 28 47 40 38 35 34 35 34 32 29 33 30 28 22 20 21 10 15 18 23 26 24 16 24 24 21 19 20 21 22 23
57 56 56 56 56 56 57 58 56 54 52 48 38 24 30 32 43 39 34 35 33 33 30 31 29 27 25 19 10 15 17 15 12 23 25 24 23 24 25 24 23 22 23 24 23
58 57 57 57 57 57 56 51 37 37 39 26 26 23 34 40 43 40 36 33 33 30 24 29 23 20 21 20 17 16 16 17 16 24 23 22 22 23 23 20 17 19 23 24 23
55 56 58 58 57 57 55 46 45 44 40 33 31 32 36 39 36 38 35 29 30 24 28 26 20 22 22 22 20 18 17 17 18 25 21 20 19 20 21 19 18 17 17 19 20
53 53 54 57 58 55 52 48 49 47 41 41 35 32 32 37 32 37 33 31 29 27 27 25 23 25 24 24 21 20 18 17 16 22 22 21 18 19 19 24 22 21 20 21 21
52 53 53 55 54 54 51 51 51 48 37 38 39 36 35 31 25 39 35 30 28 27 27 26 28 23 24 22 21 19 24 20 19 18 14 22 14 19 16 14 14 19 21 22 23
48 49 51 54 54 52 52 53 51 48 23 36 38 40 37 23 31 36 36 32 26 25 25 24 23 23 23 22 22 20 25 23 23 21 23 22 18 18 18 12 12 11 14 17 22
45 46 50 53 55 55 55 54 48 37 26 34 36 34 31 32 34 35 33 33 31 27 26 25 29 27 24 29 25 27 25 26 25 21 15 17 14 13 11 11 11 13 19 24 25
47 46 48 50 51 55 56 50 37 31 36 33 34 33 32 30 31 32 30 29 23 22 23 26 25 29 29 25 28 25 18 15 16 18 13 17 14 12 13 13 12 13 15 20 34
45 46 46 47 52 55 53 41 30 36 34 35 35 34 31 30 30 30 29 27 27 23 23 21 18 26 27 24 24 25 19 17 10 18 17 19 15 14 18 16 16 17 18 22 23
45 42 44 48 49 54 45 32 34 37 37 34 33 31 31 30 29 27 28 27 27 25 16 18 17 27 28 26 23 25 22 22 20 15 18 17 18 17 20 16 17 21 26 28 31
41 40 40 48 49 50 41 34 37 39 38 35 31 31 29 30 28 27 27 28 28 27 25 22 20 28 28 27 27 24 25 21 23 11 11 15 15 15 17 17 28 28 27 28 31
41 32 41 48 48 44 35 36 38 39 39 38 36 35 34 29 28 28 28 28 29 29 27 25 25 25 26 25 23 25 23 23 22 23 15 13 12 16 16 24 25 27 28 31 31
39 28 43 45 38 37 34 35 36 37 39 39 36 36 37 35 30 28 29 32 37 31 28 31 28 24 23 25 26 24 22 23 21 18 20 21 15 24 25 24 24 25 29 35 36
34 33 43 46 30 31 32 33 34 31 36 36 35 35 36 37 35 36 37 39 37 35 33 33 28 18 23 25 27 24 25 24 24 25 21 18 17 21 24 24 24 24 26 27 29
35 26 35 39 35 30 29 30 32 34 32 32 34 35 34 33 37 32 37 39 38 36 41 39 34 26 21 28 32 30 33 35 30 23 22 22 21 23 25 25 25 27 28 28 28
37 28 31 28 29 31 32 29 28 27 31 31 30 32 32 31 31 31 36 37 37 38 35 38 32 33 32 33 33 36 34 34 33 33 31 26 26 27 27 27 27 28 29 29 29
33 31 32 28 27 28 29 29 26 27 30 28 29 30 31 30 30 29 34 35 34 35 35 36 27 32 29 32 31 28 29 31 33 32 31 30 31 33 33 34 32 31 31 33 33
35 38 34 28 28 26 23 27 26 26 27 28 28 28 27 30 33 35 36 35 34 33 34 34 32 28 15 27 27 20 26 29 29 31 30 29 29 31 31 33 35 36 36 35 35
Lifted_Index
4 4 4 4 4 4 4 5 5 5 5 5 6 6 6 6 6 7 8 9 10 10 11 11 10 9 9 8 8 7 6 5 6 6 6 6 6 7 7 7 7 7 6 4 3
4 4 4 4 4 4 5 5 5 5 5 5 6 6 6 6 6 7 8 9 10 11 11 10 10 9 8 8 8 7 6 6 6 6 6 6 6 7 7 7 7 7 6 4 3
4 5 5 5 5 5 5 5 6 6 6 6 6 6 6 6 6 7 8 10 11 11 11 10 10 9 8 8 8 7 6 6 7 7 6 6 6 7 6 6 7 7 6 4 3
4 5 5 6 6 6 6 6 6 6 6 6 6 6 6 6 6 8 9 10 10 11 10 10 9 9 8 8 7 7 7 7 7 7 7 6 6 6 6 7 7 7 6 5 3
4 5 5 6 6 6 6 6 6 6 6 6 6 6 6 7 7 9 9 10 10 10 10 10 9 8 8 8 8 7 7 7 7 7 7 6 6 6 6 7 7 7 7 5 4
4 5 5 6 6 6 6 6 6 6 6 6 6 6 7 8 8 9 10 10 10 10 10 10 9 9 8 8 8 7 7 7 7 7 7 6 5 5 6 6 7 7 7 6 5
5 5 5 5 6 6 6 6 6 6 6 6 6 7 8 8 8 9 9 10 10 10 10 10 9 9 8 8 8 7 7 6 6 6 6 6 5 5 6 6 7 7 7 7 7
4 4 5 5 5 5 5 5 5 6 6 6 7 8 9 9 8 8 9 9 9 9 9 10 9 9 8 8 7 7 6 5 5 6 6 5 4 5 6 6 6 6 7 7 7
3 4 4 4 4 4 4 4 5 6 6 7 8 8 9 9 8 8 8 9 9 9 9 9 9 8 8 7 6 5 5 4 5 6 6 5 4 5 6 6 6 6 7 7 7
2 2 2 2 2 2 3 4 6 7 7 8 8 9 9 9 8 8 8 8 9 9 9 9 8 7 7 6 4 4 4 5 5 6 6 5 4 5 6 6 6 6 6 6 6
1 1 1 1 1 1 2 4 6 7 7 8 9 9 9 9 8 8 8 8 8 8 8 8 7 6 6 6 5 5 5 5 6 7 6 5 5 5 6 6 5 5 5 5 5
2 2 2 1 1 1 1 3 4 5 6 7 8 9 9 8 8 8 8 8 8 8 8 7 6 6 7 7 6 6 5 5 6 7 7 6 5 5 5 5 5 5 5 5 5
3 3 2 2 2 1 1 2 3 4 4 5 7 8 8 8 8 8 8 8 8 8 7 7 7 7 7 7 6 6 6 5 6 6 6 5 4 4 5 5 5 5 4 4 4
3 3 3 3 2 1 1 2 2 2 3 3 5 6 8 8 8 8 8 8 8 8 7 7 7 7 7 7 7 6 6 6 6 5 5 5 3 3 4 4 4 4 4 5 5
3 3 3 3 2 2 2 2 2 2 2 3 4 5 6 7 8 8 8 8 8 8 7 7 7 7 7 7 7 7 7 7 6 5 5 4 3 3 3 4 4 4 5 5 5
4 3 3 3 2 2 2 2 2 2 2 2 3 4 5 6 7 7 7 7 7 7 7 7 8 8 7 7 8 8 7 6 5 4 4 4 4 3 4 5 5 5 5 6 6
5 5 3 2 2 2 2 2 2 2 2 2 2 3 3 4 5 6 6 6 6 6 6 7 7 7 7 7 7 7 6 4 3 2 3 4 4 4 5 6 6 6 6 6 7
7 6 4 3 2 2 2 2 1 1 2 2 2 2 2 2 3 4 4 5 5 6 5 5 6 7 7 7 7 6 5 4 2 2 3 4 4 5 7 7 7 7 7 7 7
8 7 5 4 3 2 2 2 1 1 2 2 2 2 2 2 2 2 3 4 4 5 5 4 5 6 6 6 6 6 6 5 4 3 3 4 4 6 7 7 7 7 7 7 7
9 8 6 5 3 2 2 2 2 2 2 2 2 2 2 2 2 2 2 3 3 4 4 4 4 5 5 5 5 5 5 5 4 3 2 3 4 5 7 7 7 6 7 7 6
9 8 7 5 4 3 4 3 3 2 2 2 2 2 2 2 2 2 2 3 3 3 3 3 3 3 4 4 4 4 5 4 4 3 2 2 3 5 6 7 6 6 6 6 6
8 8 7 5 5 5 5 5 4 3 3 2 2 2 2 2 2 2 2 3 3 3 3 2 2 2 3 3 4 4 4 4 4 3 3 2 3 6 6 6 6 6 6 6 6
7 7 6 6 6 6 6 5 4 4 3 3 3 2 2 2 2 2 2 3 3 3 3 3 2 2 2 3 3 3 4 4 4 3 3 3 3 5 6 6 6 5 5 5 5
7 6 6 6 6 6 6 5 5 4 4 3 3 3 2 2 2 2 2 2 2 3 3 3 3 2 2 2 2 3 3 3 3 3 3 3 4 5 5 6 5 5 5 5 5
6 6 6 6 6 6 6 5 5 5 4 4 3 3 3 2 2 2 2 2 2 2 2 2 2 2 2 2 2 2 3 3 2 2 2 3 4 5 5 5 5 5 5 5 5
7 6 6 6 6 6 5 5 5 4 4 4 4 3 3 3 3 3 2 2 2 2 2 2 2 2 2 2 3 3 3 2 2 2 2 3 3 4 5 5 5 5 5 5 5
7 7 6 6 6 5 5 5 5 4 4 4 4 3 3 3 3 3 3 2 2 2 2 2 2 2 2 2 3 3 3 3 2 2 2 2 3 3 4 4 4 4 5 5 5